When you browse on this site, cookies collect data to enhance your experience and personalize the content and advertising you see.
Visit our Privacy Policy to learn more. By continuing to use the site, you agree to this use of cookies and data.
  • In Latvia
  • List of Countries
  • For 7 days
  • Water Temperature
  • Weather Map
  • Weather Widgets
  • user-avatar
    Login

    Hourly Weather Gjirokaster

    Today, 19 November, Tuesday

    Time Temperature Precipitation Wind Pressure Humidity
    00:00 +5°C° 0 mm 2 mps 653 mmHg 82%
    01:00 +5°C° 0 mm 2 mps 653 mmHg 79%
    02:00 +5°C° 0 mm 2 mps 653 mmHg 77%
    03:00 +5°C° 0 mm 2 mps 653 mmHg 75%
    04:00 +5°C° 0 mm 2 mps 653 mmHg 72%
    05:00 +6°C° 0 mm 2 mps 653 mmHg 72%
    06:00 +6°C° 0 mm 2 mps 653 mmHg 72%
    07:00 +6°C° 0 mm 2 mps 653 mmHg 73%
    08:00 +7°C° 0.1 mm 2 mps 653 mmHg 73%
    09:00 +8°C° 0.1 mm 2 mps 654 mmHg 73%
    10:00 +8°C° 0.1 mm 2 mps 654 mmHg 73%
    11:00 +9°C° 0 mm 2 mps 654 mmHg 70%
    12:00 +12°C° 0 mm 2 mps 654 mmHg 67%
    13:00 +13°C° 0 mm 2 mps 654 mmHg 63%
    14:00 +12°C° 0.2 mm 2 mps 653 mmHg 68%
    15:00 +10°C° 0.2 mm 2 mps 653 mmHg 72%
    16:00 +9°C° 0.2 mm 2 mps 652 mmHg 77%
    17:00 +9°C° 0.7 mm 2 mps 652 mmHg 79%
    18:00 +9°C° 0.7 mm 3 mps 652 mmHg 81%
    19:00 +8°C° 0.7 mm 3 mps 652 mmHg 83%
    20:00 +8°C° 1 mm 3 mps 652 mmHg 84%
    21:00 +8°C° 1 mm 3 mps 652 mmHg 85%
    22:00 +8°C° 1 mm 3 mps 651 mmHg 85%
    23:00 +7°C° 1.4 mm 3 mps 651 mmHg 87%

    Tomorrow, 20 November, Wednesday

    Time Temperature Precipitation Wind Pressure Humidity
    00:00 +6°C° 1.4 mm 4 mps 650 mmHg 89%
    01:00 +6°C° 1.4 mm 4 mps 650 mmHg 91%
    02:00 +6°C° 9.6 mm 4 mps 649 mmHg 93%
    03:00 +6°C° 9.6 mm 4 mps 649 mmHg 95%
    04:00 +5°C° 9.6 mm 3 mps 649 mmHg 96%
    05:00 +5°C° 3.3 mm 3 mps 649 mmHg 95%
    06:00 +5°C° 3.3 mm 3 mps 649 mmHg 93%
    07:00 +5°C° 3.3 mm 3 mps 649 mmHg 91%
    08:00 +7°C° 0.6 mm 3 mps 650 mmHg 88%
    09:00 +7°C° 0.6 mm 3 mps 650 mmHg 84%
    10:00 +8°C° 0.6 mm 3 mps 651 mmHg 81%
    11:00 +8°C° 0.3 mm 3 mps 651 mmHg 78%
    12:00 +9°C° 0.3 mm 3 mps 651 mmHg 75%
    13:00 +9°C° 0.3 mm 3 mps 651 mmHg 73%
    14:00 +8°C° 0.1 mm 2 mps 651 mmHg 76%
    15:00 +8°C° 0.1 mm 2 mps 650 mmHg 79%
    16:00 +7°C° 0.1 mm 2 mps 650 mmHg 82%
    17:00 +7°C° 0 mm 2 mps 650 mmHg 84%
    18:00 +6°C° 0 mm 2 mps 650 mmHg 85%
    19:00 +6°C° 0 mm 2 mps 650 mmHg 87%
    20:00 +5°C° 0 mm 2 mps 651 mmHg 87%
    21:00 +5°C° 0 mm 2 mps 651 mmHg 87%
    22:00 +5°C° 0 mm 2 mps 651 mmHg 87%
    23:00 +5°C° 0 mm 2 mps 651 mmHg 87%

    Day after tomorrow, 21 November, Thursday

    Time Temperature Precipitation Wind Pressure Humidity
    00:00 +4°C° 0 mm 2 mps 650 mmHg 87%
    01:00 +4°C° 0 mm 2 mps 650 mmHg 87%
    02:00 +4°C° 0 mm 2 mps 650 mmHg 87%
    03:00 +4°C° 0 mm 2 mps 650 mmHg 87%
    04:00 +4°C° 0 mm 2 mps 650 mmHg 87%
    05:00 +4°C° 0 mm 2 mps 650 mmHg 86%
    06:00 +3°C° 0 mm 2 mps 650 mmHg 85%
    07:00 +3°C° 0 mm 2 mps 650 mmHg 84%
    08:00 +5°C° 0 mm 2 mps 650 mmHg 78%
    09:00 +7°C° 0 mm 1 mps 650 mmHg 71%
    10:00 +9°C° 0 mm 1 mps 651 mmHg 65%
    11:00 +9°C° 0 mm 1 mps 651 mmHg 61%
    12:00 +10°C° 0 mm 1 mps 651 mmHg 57%
    13:00 +10°C° 0 mm 1 mps 650 mmHg 53%
    14:00 +9°C° 0 mm 1 mps 650 mmHg 58%
    15:00 +7°C° 0 mm 0 mps 649 mmHg 62%
    16:00 +7°C° 0 mm 0 mps 649 mmHg 67%
    17:00 +6°C° 0 mm 0 mps 649 mmHg 68%
    18:00 +6°C° 0 mm 0 mps 649 mmHg 68%
    19:00 +5°C° 0 mm 0 mps 649 mmHg 69%
    20:00 +6°C° 0 mm 1 mps 649 mmHg 70%
    21:00 +6°C° 0 mm 1 mps 649 mmHg 70%
    22:00 +6°C° 0 mm 1 mps 649 mmHg 70%
    23:00 +6°C° 0 mm 1 mps 649 mmHg 70%

    22 November, Friday

    Time Temperature Precipitation Wind Pressure Humidity
    00:00 +7°C° 0 mm 1 mps 649 mmHg 70%
    01:00 +7°C° 0 mm 1 mps 649 mmHg 70%
    02:00 +7°C° 0 mm 1 mps 649 mmHg 71%
    03:00 +6°C° 0 mm 1 mps 649 mmHg 72%
    04:00 +5°C° 0 mm 0 mps 648 mmHg 73%
    05:00 +5°C° 0 mm 0 mps 649 mmHg 74%
    06:00 +5°C° 0 mm 0 mps 649 mmHg 75%
    07:00 +6°C° 0 mm 1 mps 649 mmHg 76%
    08:00 +7°C° 0 mm 1 mps 649 mmHg 73%
    09:00 +8°C° 0 mm 1 mps 650 mmHg 70%
    10:00 +9°C° 0 mm 1 mps 651 mmHg 67%
    11:00 +9°C° 0.1 mm 1 mps 651 mmHg 67%
    12:00 +10°C° 0.1 mm 1 mps 650 mmHg 67%
    13:00 +10°C° 0.1 mm 1 mps 650 mmHg 67%
    14:00 +9°C° 0.1 mm 1 mps 650 mmHg 72%
    15:00 +8°C° 0.1 mm 1 mps 650 mmHg 77%
    16:00 +8°C° 0.1 mm 1 mps 650 mmHg 81%
    17:00 +7°C° 0 mm 1 mps 650 mmHg 83%
    18:00 +5°C° 0 mm 0 mps 650 mmHg 86%
    19:00 +5°C° 0 mm 0 mps 650 mmHg 88%
    20:00 +5°C° 0 mm 0 mps 650 mmHg 88%
    21:00 +5°C° 0 mm 0 mps 650 mmHg 89%
    22:00 +6°C° 0 mm 1 mps 650 mmHg 89%
    23:00 +6°C° 0.1 mm 1 mps 650 mmHg 89%

    23 November, Saturday

    Time Temperature Precipitation Wind Pressure Humidity
    00:00 +6°C° 0.1 mm 1 mps 650 mmHg 89%
    01:00 +5°C° 0.1 mm 1 mps 650 mmHg 89%
    02:00 +5°C° 0.1 mm 1 mps 650 mmHg 90%
    03:00 +5°C° 0.1 mm 1 mps 650 mmHg 90%
    04:00 +5°C° 0.1 mm 1 mps 650 mmHg 90%
    05:00 +5°C° 0.1 mm 1 mps 650 mmHg 90%
    06:00 +5°C° 0.1 mm 1 mps 650 mmHg 90%
    07:00 +5°C° 0.1 mm 1 mps 650 mmHg 90%
    08:00 +6°C° 0 mm 1 mps 650 mmHg 85%
    09:00 +6°C° 0 mm 2 mps 651 mmHg 80%
    10:00 +7°C° 0 mm 2 mps 651 mmHg 76%
    11:00 +7°C° 0 mm 2 mps 651 mmHg 73%
    12:00 +8°C° 0 mm 2 mps 651 mmHg 70%
    13:00 +8°C° 0 mm 2 mps 650 mmHg 67%
    14:00 +7°C° 0 mm 2 mps 650 mmHg 70%
    15:00 +7°C° 0 mm 2 mps 650 mmHg 74%
    16:00 +6°C° 0 mm 2 mps 649 mmHg 78%
    17:00 +6°C° 0 mm 2 mps 649 mmHg 79%
    18:00 +5°C° 0 mm 2 mps 649 mmHg 81%
    19:00 +5°C° 0 mm 2 mps 649 mmHg 83%
    20:00 +4°C° 0 mm 2 mps 649 mmHg 82%
    21:00 +4°C° 0 mm 2 mps 649 mmHg 81%
    22:00 +4°C° 0 mm 2 mps 649 mmHg 81%
    23:00 +4°C° 0 mm 2 mps 649 mmHg 80%

    24 November, Sunday

    Time Temperature Precipitation Wind Pressure Humidity
    00:00 +4°C° 0 mm 2 mps 649 mmHg 79%
    01:00 +4°C° 0 mm 2 mps 649 mmHg 78%
    02:00 +4°C° 0 mm 2 mps 649 mmHg 76%
    03:00 +3°C° 0 mm 3 mps 649 mmHg 75%
    04:00 +3°C° 0 mm 3 mps 648 mmHg 73%
    05:00 +3°C° 0 mm 3 mps 648 mmHg 72%
    06:00 +3°C° 0 mm 3 mps 648 mmHg 71%
    07:00 +3°C° 0 mm 3 mps 648 mmHg 70%
    08:00 +5°C° 0 mm 2 mps 648 mmHg 67%
    09:00 +6°C° 0 mm 2 mps 649 mmHg 64%
    10:00 +7°C° 0 mm 2 mps 649 mmHg 61%
    11:00 +8°C° 0 mm 2 mps 649 mmHg 59%
    12:00 +9°C° 0 mm 2 mps 649 mmHg 57%
    13:00 +9°C° 0 mm 2 mps 648 mmHg 55%
    14:00 +9°C° 0 mm 2 mps 648 mmHg 60%
    15:00 +8°C° 0 mm 2 mps 647 mmHg 65%
    16:00 +7°C° 0 mm 2 mps 647 mmHg 70%
    17:00 +6°C° 0 mm 2 mps 646 mmHg 71%
    18:00 +6°C° 0 mm 2 mps 646 mmHg 72%
    19:00 +4°C° 0 mm 3 mps 646 mmHg 74%
    20:00 +4°C° 0 mm 3 mps 646 mmHg 74%
    21:00 +5°C° 0 mm 2 mps 646 mmHg 75%
    22:00 +5°C° 0 mm 2 mps 646 mmHg 75%
    23:00 +5°C° 0 mm 2 mps 646 mmHg 76%
    Show more